ICEYE-X18 (52749 NORAD) Tracking and Keplerian Element Data

This shows tracking and keplerian element data for the satellite.

Feedback or suggestion? Click here.




ElementValue
Catalog52749
NameICEYE-X18
Epoch Orbit717
Epoch Day193.20184127
Epoch Year2022
RAAN307.5129
Inclination97.5175
Eccentricity0.0010958
Argument of Perigee77.4226
Mean Anonmoly8.3808
Mean Motion15.12701861
Decay Rate5.901E-05
L11 52749U 22057T 22193.20184127 .00005901 00000+0 34027-3 0 9998
L22 52749 97.5175 307.5129 0010958 77.4226 8.3808 15.12701861 7175

Live tracking and technical data element details for ICEYE-X18 (NORAD 52749). ICEYE-X18 can be tracked NOW for your location showing map with azimuth and elevation plus other details from your city location.

Track the satellite on the map from your city or location and see movement details for azimuth, elevation, latitude, longitude, range, height, and movement on the map or in text.







IsCatalogInMostPopularTable: catalog: 52749, numindb: 4
Update: records affected: 1



GetName: 52749 ICEYE-X18

Hit Count: updated at: Sun, 14 Aug 2022 01:29:17 GMT